[[{"header":{"parameterUnit":"m.s-1","parameterCategory":1,"la1":30.2991,"la2":30.254,"lo1":-89.0895,"lo2":-89.0444,"dy":0.0017,"dx":0.0017,"nx":28,"ny":28,"refTime":"2024-07-24T03:00:00:Z","depth":0,"parameterNumber":2,"parameterNumberName":"U-component_of_WINDS"},"data":[0,0,0,0,0,0,0,0,0,0,0,0,0,0,0,0,0,0,0,0,0,0,0,0,0,0,0,0,0,0,0,0,0,0,0,0,0,0,0,0,0,0,0,0,0,0,0,0,0,0,0,0,0,0,0,0,0,0,-0.4373,-0.4373,0,-0.439,-0.439,-0.4391,-0.4402,-0.4402,-0.4402,-0.4402,-0.4418,-0.4419,-0.4419,0,0,0,0,0,0,0,0,0,0,0,0,0,-0.4348,-0.4348,-0.4373,-0.4373,-0.4374,-0.439,-0.439,-0.4391,-0.4402,-0.4402,-0.4402,-0.4402,-0.4418,-0.4419,-0.4419,0,0,0,0,0,0,0,0,0,0,0,0,0,-0.4361,-0.4348,-0.4373,-0.4381,-0.4382,-0.439,-0.439,-0.4391,-0.4402,-0.4402,-0.4402,-0.4402,-0.4418,-0.4419,-0.4419,-0.4421,0,0,-0.4421,-0.4421,0,0,0,0,0,0,0,0,-0.436,-0.4362,-0.438,-0.4381,-0.4382,-0.4394,-0.4388,-0.4401,-0.4402,-0.4394,-0.4402,-0.4402,-0.441,-0.4411,-0.4414,-0.4422,-0.4422,-0.4421,-0.4421,-0.4422,-0.4422,0,0,0,0,0,0,0,-0.436,-0.4361,-0.438,-0.438,-0.4381,-0.4383,-0.4385,-0.439,-0.4401,-0.4395,-0.4396,-0.4398,-0.4411,-0.4414,-0.4415,-0.4422,-0.4421,-0.4422,-0.4422,-0.4422,-0.4429,-0.4429,0,0,0,0,0,0,-0.4358,-0.4361,-0.4379,-0.438,-0.4371,-0.4383,-0.4386,-0.439,-0.4401,-0.4403,-0.4397,-0.4398,-0.4413,-0.4414,-0.4415,-0.4417,-0.4422,-0.4422,-0.4423,-0.443,-0.4429,-0.4429,0,0,0,0,0,0,-0.4357,-0.4359,-0.4379,-0.4371,-0.4373,-0.4384,-0.4388,-0.439,-0.4393,-0.4403,-0.4405,-0.4399,-0.4413,-0.4415,-0.4419,-0.4418,-0.4422,-0.4423,-0.443,-0.443,-0.4429,-0.4421,0,0,0,0,0,0,-0.4356,-0.4359,-0.436,-0.4371,-0.4374,-0.4383,-0.4388,-0.439,-0.4394,-0.4395,-0.4405,-0.4407,-0.4413,-0.4418,-0.4419,-0.4419,-0.4423,-0.443,-0.443,-0.4429,-0.4421,-0.442,-0.4419,0,0,0,0,0,-0.4355,-0.4358,-0.436,-0.4363,-0.4376,-0.4383,-0.4384,-0.4392,-0.4394,-0.4395,-0.4401,-0.4406,-0.4417,-0.4418,-0.442,-0.4419,-0.443,-0.443,-0.4429,-0.4422,-0.442,-0.4419,0,0,0,0,0,0,-0.4347,-0.4359,-0.4363,-0.4368,-0.4374,-0.4385,-0.4386,-0.4391,-0.4396,-0.4397,-0.4406,-0.4408,-0.4411,-0.4415,-0.4416,-0.442,-0.4424,-0.4424,-0.4418,-0.4417,-0.4416,-0.4415,-0.4424,0,0,0,0,0,-0.4346,-0.4351,-0.4361,-0.4365,-0.4368,-0.4376,-0.438,-0.4385,-0.4391,-0.4394,-0.44,-0.4406,-0.4411,-0.4414,-0.4419,-0.4421,-0.4423,-0.4421,-0.442,-0.442,-0.442,-0.442,-0.4419,-0.4428,-0.4428,-0.4428,0,0,-0.4344,-0.4351,-0.4354,-0.4363,-0.4369,-0.4373,-0.4379,-0.4383,-0.4386,-0.4395,-0.4399,-0.4404,-0.441,-0.4413,-0.4415,-0.4417,-0.4417,-0.4419,-0.4419,-0.4419,-0.442,-0.4419,-0.4418,-0.4428,-0.4428,-0.4428,0,0,-0.4342,-0.4348,-0.4352,-0.4356,-0.4364,-0.4369,-0.437,-0.4379,-0.4382,-0.4387,-0.4393,-0.4395,-0.4404,-0.4408,-0.4411,-0.4408,-0.4412,-0.4409,-0.4405,-0.4405,-0.4404,-0.4404,-0.4402,-0.4402,-0.4409,-0.4409,-0.4409,0,-0.4339,-0.4346,-0.4353,-0.4357,-0.436,-0.4367,-0.437,-0.4374,-0.4383,-0.4385,-0.4387,-0.4396,-0.4401,-0.4405,-0.4403,-0.4406,-0.4406,-0.4409,-0.4404,-0.4403,-0.4403,-0.4401,-0.4401,-0.4408,-0.4408,-0.4408,-0.4408,0,-0.4341,-0.4345,-0.4347,-0.4355,-0.4358,-0.4362,-0.4368,-0.4371,-0.4374,-0.4379,-0.4382,-0.4388,-0.4394,-0.4395,-0.4399,-0.4398,-0.4399,-0.4402,-0.4407,-0.4402,-0.44,-0.44,-0.4408,-0.4408,-0.4408,-0.4408,0,0,-0.4337,-0.4347,-0.4347,-0.435,-0.4358,-0.4361,-0.4364,-0.4369,-0.437,-0.4375,-0.4377,-0.4383,-0.4385,-0.4388,-0.4393,-0.4393,-0.4389,-0.4396,-0.4396,-0.4394,-0.4387,-0.4385,-0.4385,-0.4391,-0.4391,-0.4391,-0.4387,0,-0.4337,-0.4343,-0.4348,-0.4351,-0.4355,-0.436,-0.4362,-0.4366,-0.437,-0.4373,-0.4376,-0.438,-0.4383,-0.4385,-0.4385,-0.4389,-0.4387,-0.4389,-0.4393,-0.4393,-0.4392,-0.4384,-0.4383,-0.4379,-0.4386,-0.4386,-0.4386,0,-0.4338,-0.4342,-0.4346,-0.4351,-0.4353,-0.4355,-0.4359,-0.4362,-0.4366,-0.4368,-0.4371,-0.4375,-0.4376,-0.4379,-0.4381,-0.4382,-0.4383,-0.4385,-0.4385,-0.4387,-0.439,-0.4386,-0.4378,-0.4377,-0.4386,-0.4386,-0.4386,0,-0.4334,-0.4341,-0.4344,-0.4346,-0.4352,-0.4353,-0.4356,-0.436,-0.4362,-0.4365,-0.4366,-0.437,-0.4371,-0.4373,-0.4377,-0.4379,-0.4378,-0.4382,-0.438,-0.438,-0.4381,-0.4381,-0.4373,-0.438,-0.438,-0.438,-0.438,0,-0.4334,-0.4336,-0.4342,-0.4344,-0.4346,-0.4351,-0.4352,-0.4355,-0.4358,-0.436,-0.4364,-0.4365,-0.437,-0.4371,-0.4374,-0.4375,-0.4376,-0.4377,-0.4378,-0.4377,-0.4377,-0.4379,-0.438,-0.438,-0.438,-0.438,-0.438,0,-0.4332,-0.4336,-0.4339,-0.4344,-0.4345,-0.4346,-0.435,-0.4352,-0.4354,-0.4356,-0.4357,-0.4361,-0.4363,-0.4366,-0.4369,-0.4371,-0.4371,-0.4372,-0.437,-0.4371,-0.4369,-0.4369,-0.4363,-0.4362,-0.4369,-0.4369,-0.4369,0,-0.4332,-0.4333,-0.4338,-0.4339,-0.4342,-0.4344,-0.4346,-0.4349,-0.4351,-0.4354,-0.4355,-0.4356,-0.4359,-0.4361,-0.4364,-0.4365,-0.4367,-0.4364,-0.4367,-0.4366,-0.4367,-0.4367,-0.4367,-0.4364,-0.4364,-0.4364,-0.4364,0,-0.4331,-0.4333,-0.4335,-0.4338,-0.4339,-0.4342,-0.4344,-0.4345,-0.4348,-0.435,-0.4351,-0.4353,-0.4355,-0.4356,-0.4358,-0.436,-0.4362,-0.4363,-0.4362,-0.4362,-0.4361,-0.4361,-0.4369,-0.4363,-0.4363,-0.4363,-0.4363,-0.4363,-0.433,-0.4331,-0.4334,-0.4336,-0.4338,-0.434,-0.4341,-0.4343,-0.4344,-0.4347,-0.4348,-0.4349,-0.4351,-0.4353,-0.4354,-0.4355,-0.4356,-0.4356,-0.4356,-0.4356,-0.4355,-0.436,-0.4355,-0.4355,-0.4355,-0.4355,-0.4355,0,-0.433,-0.4332,-0.4333,-0.4336,-0.4337,-0.4338,-0.434,-0.4341,-0.4342,-0.4344,-0.4345,-0.4346,-0.4346,-0.4348,-0.4349,-0.4349,-0.435,-0.4349,-0.435,-0.435,-0.4354,-0.4354,-0.4348,-0.4348,-0.4348,-0.4348,-0.4348,-0.4348,-0.433,-0.4332,-0.4333,-0.4335,-0.4336,-0.4337,-0.4338,-0.4339,-0.434,-0.4341,-0.4341,-0.4342,-0.4344,-0.4344,-0.4344,-0.4345,-0.4345,-0.4343,-0.4344,-0.4349,-0.435,-0.435,-0.4351,-0.4343,-0.4343,-0.434,-0.434,-0.434]},{"header":{"parameterUnit":"m.s-1","parameterCategory":1,"la1":30.2991,"la2":30.254,"lo1":-89.0895,"lo2":-89.0444,"dy":0.0017,"dx":0.0017,"nx":28,"ny":28,"refTime":"2024-07-24T03:00:00:Z","depth":0,"parameterNumber":3,"parameterNumberName":"V-component_of_WINDS"},"data":[0,0,0,0,0,0,0,0,0,0,0,0,0,0,0,0,0,0,0,0,0,0,0,0,0,0,0,0,0,0,0,0,0,0,0,0,0,0,0,0,0,0,0,0,0,0,0,0,0,0,0,0,0,0,0,0,0,0,0.4428,0.4427,0,0.4386,0.4386,0.4385,0.4339,0.4339,0.4338,0.4337,0.4293,0.4293,0.4292,0,0,0,0,0,0,0,0,0,0,0,0,0,0.4468,0.4467,0.4428,0.4427,0.4427,0.4386,0.4386,0.4385,0.434,0.4339,0.4338,0.4337,0.4293,0.4293,0.4292,0,0,0,0,0,0,0,0,0,0,0,0,0,0.444,0.4467,0.4428,0.4399,0.4396,0.4386,0.4386,0.4385,0.434,0.4339,0.4338,0.4337,0.4293,0.4293,0.4292,0.4306,0,0,0.4289,0.4289,0,0,0,0,0,0,0,0,0.4442,0.4439,0.4404,0.4401,0.4398,0.4367,0.4383,0.4358,0.434,0.4361,0.4337,0.4336,0.4318,0.4315,0.431,0.4304,0.4302,0.4289,0.4289,0.4288,0.4288,0,0,0,0,0,0,0,0.4444,0.4441,0.4411,0.4404,0.44,0.4388,0.4383,0.4378,0.4346,0.4359,0.4356,0.4352,0.4316,0.4311,0.4308,0.4301,0.4289,0.4288,0.4288,0.4287,0.4305,0.4306,0,0,0,0,0,0,0.445,0.4442,0.4413,0.441,0.4418,0.4388,0.4383,0.4378,0.4346,0.434,0.4352,0.435,0.4313,0.4309,0.4307,0.4321,0.4288,0.4287,0.4287,0.4304,0.4305,0.4306,0,0,0,0,0,0,0.4451,0.4448,0.4414,0.4425,0.442,0.4389,0.4384,0.4378,0.4372,0.4341,0.4334,0.4352,0.4312,0.4308,0.4307,0.4319,0.4287,0.4286,0.4303,0.4305,0.4306,0.435,0,0,0,0,0,0,0.4453,0.4449,0.4454,0.4426,0.442,0.4416,0.4384,0.4377,0.437,0.4366,0.4339,0.4333,0.4311,0.4308,0.4306,0.4317,0.4286,0.4302,0.4304,0.4305,0.4347,0.4353,0.4357,0,0,0,0,0,0.4454,0.4468,0.4455,0.4451,0.4426,0.4416,0.4413,0.4387,0.4372,0.4377,0.4357,0.4334,0.4318,0.4308,0.4305,0.4316,0.4301,0.4303,0.4305,0.4345,0.4352,0.4357,0,0,0,0,0,0,0.4498,0.4464,0.4449,0.4453,0.4438,0.4409,0.4414,0.4395,0.4383,0.438,0.4347,0.4341,0.4344,0.433,0.432,0.4328,0.4306,0.4308,0.4337,0.4344,0.4349,0.4352,0.4285,0,0,0,0,0,0.4508,0.4504,0.4474,0.4481,0.4474,0.4446,0.4441,0.4422,0.4405,0.4398,0.4378,0.4361,0.4352,0.4347,0.4337,0.4345,0.4338,0.4351,0.4356,0.4361,0.4362,0.4365,0.4371,0.4314,0.4314,0.4314,0,0,0.4529,0.451,0.4509,0.449,0.4475,0.4471,0.4441,0.4437,0.4434,0.4397,0.4395,0.438,0.4359,0.4363,0.4363,0.4351,0.4377,0.4364,0.4367,0.4367,0.4368,0.4374,0.4378,0.4315,0.4315,0.4315,0,0,0.4565,0.455,0.4555,0.4542,0.4521,0.4502,0.4503,0.4477,0.4465,0.4463,0.4435,0.443,0.4416,0.4402,0.4394,0.4425,0.4404,0.4423,0.4449,0.4452,0.4457,0.4461,0.4472,0.4476,0.4425,0.4425,0.4425,0,0.4594,0.4587,0.4559,0.4558,0.455,0.4517,0.4521,0.451,0.4487,0.4482,0.4469,0.445,0.4434,0.4434,0.4442,0.4436,0.4436,0.4426,0.4459,0.4462,0.4465,0.4475,0.4479,0.4427,0.4427,0.4427,0.4427,0,0.4623,0.4618,0.4624,0.4603,0.4596,0.4598,0.457,0.4566,0.4548,0.4531,0.4528,0.4508,0.4493,0.4492,0.4474,0.4489,0.4483,0.4465,0.4441,0.4474,0.4482,0.4486,0.4431,0.443,0.4429,0.4429,0,0,0.4684,0.4649,0.4651,0.4642,0.4617,0.4613,0.4613,0.4599,0.4596,0.4582,0.458,0.4569,0.4552,0.4543,0.4523,0.4526,0.4552,0.4507,0.4506,0.4516,0.4567,0.458,0.4585,0.4538,0.4539,0.4539,0.4568,0,0.4715,0.4713,0.4689,0.4694,0.4689,0.4659,0.4658,0.4643,0.4627,0.462,0.4602,0.4594,0.4573,0.4567,0.4568,0.4549,0.4562,0.4546,0.4536,0.4536,0.4542,0.459,0.4604,0.4632,0.4572,0.4572,0.4573,0,0.4751,0.4739,0.4744,0.4719,0.4717,0.4717,0.4703,0.4697,0.4679,0.4667,0.4656,0.4634,0.4632,0.4611,0.4607,0.4597,0.4591,0.4581,0.4582,0.4579,0.4556,0.4588,0.4641,0.4645,0.4578,0.4578,0.4577,0,0.4795,0.478,0.4781,0.4774,0.4745,0.4746,0.4734,0.4715,0.4709,0.4696,0.4691,0.4679,0.4671,0.4662,0.4637,0.4624,0.4636,0.4612,0.4625,0.4626,0.4628,0.4628,0.468,0.4626,0.4626,0.4626,0.4626,0,0.4832,0.4836,0.4801,0.4801,0.4805,0.4777,0.4781,0.4766,0.4749,0.4746,0.4719,0.4716,0.4684,0.4677,0.4658,0.4657,0.4654,0.4644,0.4639,0.4646,0.4647,0.4641,0.4639,0.4627,0.4627,0.4626,0.4626,0,0.4881,0.4858,0.4857,0.483,0.4824,0.4827,0.4804,0.4803,0.4786,0.4782,0.4779,0.4751,0.4742,0.4717,0.4701,0.4688,0.4693,0.4683,0.4699,0.4696,0.4709,0.4708,0.4759,0.4764,0.4707,0.4708,0.4708,0,0.4906,0.4908,0.4882,0.4879,0.4868,0.4862,0.4855,0.4828,0.4822,0.4802,0.4804,0.4793,0.4782,0.477,0.4747,0.4735,0.4725,0.4743,0.4723,0.473,0.4724,0.4724,0.4724,0.4748,0.4748,0.4749,0.475,0,0.4953,0.4941,0.4933,0.4921,0.4914,0.4903,0.489,0.4889,0.4858,0.4853,0.4844,0.4836,0.482,0.481,0.4794,0.4781,0.476,0.4756,0.4759,0.4766,0.4775,0.477,0.4711,0.4755,0.4755,0.4754,0.4754,0.4754,0.499,0.499,0.4972,0.4964,0.4952,0.4941,0.4939,0.4921,0.4914,0.4899,0.4884,0.4876,0.4858,0.4835,0.4824,0.4817,0.4806,0.4809,0.481,0.4811,0.4815,0.4777,0.4814,0.4814,0.4814,0.4814,0.4814,0,0.5034,0.5021,0.5014,0.4998,0.4991,0.4973,0.4959,0.4954,0.4948,0.4934,0.4924,0.4914,0.4904,0.4881,0.4868,0.4868,0.4858,0.4865,0.4865,0.4862,0.4825,0.4825,0.4873,0.4873,0.4873,0.4873,0.4873,0.4873,0.5057,0.5057,0.5044,0.5037,0.5024,0.5017,0.5011,0.5,0.4988,0.4978,0.497,0.4955,0.4937,0.4923,0.4913,0.4906,0.4903,0.4913,0.4904,0.487,0.4864,0.4859,0.4858,0.4913,0.4913,0.494,0.4941,0.4941]}]]